Location: Bonny Doon Airfield
(37.0704°N, 122.1252°W)
Time: 08:57:59
(UTC-07:00)

Vanguard 2 - Pass Details

Date: 14 December 2017
Orbit: 553 x 2939 km, 32.9° (Epoch: 21 July)

Event Time Altitude Azimuth Distance (km) Brightness Sun altitude
Rises 19:40:42 0° 270° (W) 3,022 11.7 -32.7°
Reaches altitude 10° 19:43:34 10° 255° (WSW) 1,936 10.4 -33.2°
Enters shadow 19:45:13 18° 237° (WSW) 1,437 9.5 -33.6°
Maximum altitude 19:46:55 23° 202° (SSW) 1,203 - -33.9°
Drops below altitude 10° 19:50:05 10° 148° (SSE) 1,828 - -34.5°
Sets 19:52:43 0° 133° (SE) 2,807 - -35.0°
